Year,Month,Day,Hour,Minute,Value (Times are PST for temperature in C)
2009,09,23,00,00,12.00
2009,09,23,00,01,12.00
2009,09,23,00,02,12.00
2009,09,23,00,03,11.90
2009,09,23,00,04,11.90
2009,09,23,00,05,11.90
2009,09,23,00,06,11.90
2009,09,23,00,07,11.90
2009,09,23,00,08,11.90
2009,09,23,00,09,11.90
2009,09,23,00,10,11.90
2009,09,23,00,11,11.90
2009,09,23,00,12,11.90
2009,09,23,00,13,11.90
2009,09,23,00,14,11.80
2009,09,23,00,15,11.80
2009,09,23,00,16,11.80
2009,09,23,00,17,11.80
2009,09,23,00,18,11.80
2009,09,23,00,19,11.80
2009,09,23,00,20,11.80
2009,09,23,00,21,11.80
2009,09,23,00,22,11.80
2009,09,23,00,23,11.80
2009,09,23,00,24,11.70
2009,09,23,00,25,11.70
2009,09,23,00,26,11.70
2009,09,23,00,27,11.70
2009,09,23,00,28,11.70
2009,09,23,00,29,11.60
2009,09,23,00,30,11.70
2009,09,23,00,31,11.70
2009,09,23,00,32,11.70
2009,09,23,00,33,11.70
2009,09,23,00,34,11.70
2009,09,23,00,35,11.70
2009,09,23,00,36,11.70
2009,09,23,00,37,11.70
2009,09,23,00,38,11.80
2009,09,23,00,39,11.80
2009,09,23,00,40,11.80
2009,09,23,00,41,11.80
2009,09,23,00,42,11.90
2009,09,23,00,43,11.90
2009,09,23,00,44,11.90
2009,09,23,00,45,11.90
2009,09,23,00,46,11.90
2009,09,23,00,47,11.80
2009,09,23,00,48,11.70
2009,09,23,00,49,11.70
2009,09,23,00,50,11.60
2009,09,23,00,51,11.60
2009,09,23,00,52,11.50
2009,09,23,00,53,11.50
2009,09,23,00,54,11.50
2009,09,23,00,55,11.40
2009,09,23,00,56,11.40
2009,09,23,00,57,11.40
2009,09,23,00,58,11.40
2009,09,23,00,59,11.30
2009,09,23,01,00,11.30
2009,09,23,01,01,11.30
2009,09,23,01,02,11.30
2009,09,23,01,03,11.30
2009,09,23,01,04,11.30
2009,09,23,01,05,11.30
2009,09,23,01,06,11.30
2009,09,23,01,07,11.30
2009,09,23,01,08,11.30
2009,09,23,01,09,11.30
2009,09,23,01,10,11.30
2009,09,23,01,11,11.30
2009,09,23,01,12,11.40
2009,09,23,01,13,11.40
2009,09,23,01,14,11.40
2009,09,23,01,15,11.40
2009,09,23,01,16,11.40
2009,09,23,01,17,11.40
2009,09,23,01,18,11.40
2009,09,23,01,19,11.40
2009,09,23,01,20,11.30
2009,09,23,01,21,11.30
2009,09,23,01,22,11.30
2009,09,23,01,23,11.30
2009,09,23,01,24,11.30
2009,09,23,01,25,11.30
2009,09,23,01,26,11.30
2009,09,23,01,27,11.30
2009,09,23,01,28,11.20
2009,09,23,01,29,11.20
2009,09,23,01,30,11.20
2009,09,23,01,31,11.20
2009,09,23,01,32,11.20
2009,09,23,01,33,11.20
2009,09,23,01,34,11.20
2009,09,23,01,35,11.10
2009,09,23,01,36,11.10
2009,09,23,01,37,11.00
2009,09,23,01,38,11.00
2009,09,23,01,39,10.90
2009,09,23,01,40,10.90
2009,09,23,01,41,10.90
2009,09,23,01,42,10.80
2009,09,23,01,43,10.80
2009,09,23,01,44,10.80
2009,09,23,01,45,10.80
2009,09,23,01,46,10.80
2009,09,23,01,47,10.80
2009,09,23,01,48,10.70
2009,09,23,01,49,10.70
2009,09,23,01,50,10.70
2009,09,23,01,51,10.70
2009,09,23,01,52,10.60
2009,09,23,01,53,10.60
2009,09,23,01,54,10.60
2009,09,23,01,55,10.60
2009,09,23,01,56,10.60
2009,09,23,01,57,10.50
2009,09,23,01,58,10.50
2009,09,23,01,59,10.50
2009,09,23,02,00,10.50
2009,09,23,02,01,10.40
2009,09,23,02,02,10.40
2009,09,23,02,03,10.40
2009,09,23,02,04,10.40
2009,09,23,02,05,10.40
2009,09,23,02,06,10.40
2009,09,23,02,07,10.40
2009,09,23,02,08,10.50
2009,09,23,02,09,10.50
2009,09,23,02,10,10.60
2009,09,23,02,11,10.60
2009,09,23,02,12,10.70
2009,09,23,02,13,10.70
2009,09,23,02,14,10.70
2009,09,23,02,15,10.70
2009,09,23,02,16,10.70
2009,09,23,02,17,10.70
2009,09,23,02,18,10.70
2009,09,23,02,19,10.70
2009,09,23,02,20,10.70
2009,09,23,02,21,10.80
2009,09,23,02,22,10.80
2009,09,23,02,23,10.80
2009,09,23,02,24,10.80
2009,09,23,02,25,10.90
2009,09,23,02,26,10.90
2009,09,23,02,27,10.90
2009,09,23,02,28,10.90
2009,09,23,02,29,10.80
2009,09,23,02,30,10.80
2009,09,23,02,31,10.70
2009,09,23,02,32,10.60
2009,09,23,02,33,10.60
2009,09,23,02,34,10.50
2009,09,23,02,35,10.40
2009,09,23,02,36,10.30
2009,09,23,02,37,10.30
2009,09,23,02,38,10.30
2009,09,23,02,39,10.20
2009,09,23,02,40,10.20
2009,09,23,02,41,10.20
2009,09,23,02,42,10.10
2009,09,23,02,43,10.10
2009,09,23,02,44,10.10
2009,09,23,02,45,10.10
2009,09,23,02,46,10.10
2009,09,23,02,47,10.10
2009,09,23,02,48,10.20
2009,09,23,02,49,10.20
2009,09,23,02,50,10.20
2009,09,23,02,51,10.20
2009,09,23,02,52,10.20
2009,09,23,02,53,10.20
2009,09,23,02,54,10.20
2009,09,23,02,55,10.20
2009,09,23,02,56,10.20
2009,09,23,02,57,10.20
2009,09,23,02,58,10.20
2009,09,23,02,59,10.20
2009,09,23,03,00,10.20
2009,09,23,03,01,10.20
2009,09,23,03,02,10.10
2009,09,23,03,03,10.10
2009,09,23,03,04,10.10
2009,09,23,03,05,10.10
2009,09,23,03,06,10.10
2009,09,23,03,07,10.00
2009,09,23,03,08,10.00
2009,09,23,03,09,9.90
2009,09,23,03,10,9.80
2009,09,23,03,11,9.80
2009,09,23,03,12,9.70
2009,09,23,03,13,9.70
2009,09,23,03,14,9.60
2009,09,23,03,15,9.60
2009,09,23,03,16,9.60
2009,09,23,03,17,9.60
2009,09,23,03,18,9.60
2009,09,23,03,19,9.60
2009,09,23,03,20,9.60
2009,09,23,03,21,9.60
2009,09,23,03,22,9.60
2009,09,23,03,23,9.60
2009,09,23,03,24,9.60
2009,09,23,03,25,9.60
2009,09,23,03,26,9.70
2009,09,23,03,27,9.70
2009,09,23,03,28,9.70
2009,09,23,03,29,9.70
2009,09,23,03,30,9.70
2009,09,23,03,31,9.70
2009,09,23,03,32,9.80
2009,09,23,03,33,9.80
2009,09,23,03,34,9.80
2009,09,23,03,35,9.80
2009,09,23,03,36,9.80
2009,09,23,03,37,9.80
2009,09,23,03,38,9.80
2009,09,23,03,39,9.80
2009,09,23,03,40,9.70
2009,09,23,03,41,9.70
2009,09,23,03,42,9.70
2009,09,23,03,43,9.70
2009,09,23,03,44,9.60
2009,09,23,03,45,9.60
2009,09,23,03,46,9.60
2009,09,23,03,47,9.60
2009,09,23,03,48,9.60
2009,09,23,03,49,9.60
2009,09,23,03,50,9.60
2009,09,23,03,51,9.60
2009,09,23,03,52,9.50
2009,09,23,03,53,9.50
2009,09,23,03,54,9.50
2009,09,23,03,55,9.50
2009,09,23,03,56,9.50
2009,09,23,03,57,9.60
2009,09,23,03,58,9.60
2009,09,23,03,59,9.70
2009,09,23,04,00,9.80
2009,09,23,04,01,9.80
2009,09,23,04,02,9.80
2009,09,23,04,03,9.80
2009,09,23,04,04,9.80
2009,09,23,04,05,9.60
2009,09,23,04,06,9.50
2009,09,23,04,07,9.40
2009,09,23,04,08,9.30
2009,09,23,04,09,9.20
2009,09,23,04,10,9.10
2009,09,23,04,11,9.10
2009,09,23,04,12,9.10
2009,09,23,04,13,9.10
2009,09,23,04,14,9.10
2009,09,23,04,15,9.20
2009,09,23,04,16,9.10
2009,09,23,04,17,9.20
2009,09,23,04,18,9.20
2009,09,23,04,19,9.20
2009,09,23,04,20,9.30
2009,09,23,04,21,9.30
2009,09,23,04,22,9.40
2009,09,23,04,23,9.40
2009,09,23,04,24,9.50
2009,09,23,04,25,9.50
2009,09,23,04,26,9.60
2009,09,23,04,27,9.60
2009,09,23,04,28,9.60
2009,09,23,04,29,9.60
2009,09,23,04,30,9.60
2009,09,23,04,31,9.60
2009,09,23,04,32,9.60
2009,09,23,04,33,9.60
2009,09,23,04,34,9.50
2009,09,23,04,35,9.50
2009,09,23,04,36,9.40
2009,09,23,04,37,9.30
2009,09,23,04,38,9.30
2009,09,23,04,39,9.30
2009,09,23,04,40,9.20
2009,09,23,04,41,9.20
2009,09,23,04,42,9.20
2009,09,23,04,43,9.20
2009,09,23,04,44,9.20
2009,09,23,04,45,9.20
2009,09,23,04,46,9.20
2009,09,23,04,47,9.20
2009,09,23,04,48,9.20
2009,09,23,04,49,9.30
2009,09,23,04,50,9.30
2009,09,23,04,51,9.40
2009,09,23,04,52,9.40
2009,09,23,04,53,9.50
2009,09,23,04,54,9.50
2009,09,23,04,55,9.40
2009,09,23,04,56,9.40
2009,09,23,04,57,9.40
2009,09,23,04,58,9.30
2009,09,23,04,59,9.30
2009,09,23,05,00,9.20
2009,09,23,05,01,9.20
2009,09,23,05,02,9.10
2009,09,23,05,03,9.10
2009,09,23,05,04,9.10
2009,09,23,05,05,9.00
2009,09,23,05,06,9.00
2009,09,23,05,07,8.90
2009,09,23,05,08,8.90
2009,09,23,05,09,8.90
2009,09,23,05,10,8.90
2009,09,23,05,11,8.90
2009,09,23,05,12,8.90
2009,09,23,05,13,8.90
2009,09,23,05,14,8.90
2009,09,23,05,15,9.00
2009,09,23,05,16,9.00
2009,09,23,05,17,9.00
2009,09,23,05,18,9.00
2009,09,23,05,19,9.10
2009,09,23,05,20,9.10
2009,09,23,05,21,9.10
2009,09,23,05,22,9.00
2009,09,23,05,23,9.00
2009,09,23,05,24,9.00
2009,09,23,05,25,9.00
2009,09,23,05,26,8.90
2009,09,23,05,27,8.90
2009,09,23,05,28,8.90
2009,09,23,05,29,8.90
2009,09,23,05,30,8.80
2009,09,23,05,31,8.80
2009,09,23,05,32,8.80
2009,09,23,05,33,8.80
2009,09,23,05,34,8.70
2009,09,23,05,35,8.70
2009,09,23,05,36,8.70
2009,09,23,05,37,8.70
2009,09,23,05,38,8.60
2009,09,23,05,39,8.60
2009,09,23,05,40,8.60
2009,09,23,05,41,8.60
2009,09,23,05,42,8.60
2009,09,23,05,43,8.60
2009,09,23,05,44,8.60
2009,09,23,05,45,8.60
2009,09,23,05,46,8.60
2009,09,23,05,47,8.60
2009,09,23,05,48,8.60
2009,09,23,05,49,8.60
2009,09,23,05,50,8.60
2009,09,23,05,51,8.60
2009,09,23,05,52,8.60
2009,09,23,05,53,8.60
2009,09,23,05,54,8.60
2009,09,23,05,55,8.50
2009,09,23,05,56,8.50
2009,09,23,05,57,8.40
2009,09,23,05,58,8.40
2009,09,23,05,59,8.40
2009,09,23,06,00,8.40
2009,09,23,06,01,8.50
2009,09,23,06,02,8.50
2009,09,23,06,03,8.50
2009,09,23,06,04,8.60
2009,09,23,06,05,8.60
2009,09,23,06,06,8.60
2009,09,23,06,07,8.70
2009,09,23,06,08,8.70
2009,09,23,06,09,8.70
2009,09,23,06,10,8.70
2009,09,23,06,11,8.70
2009,09,23,06,12,8.70
2009,09,23,06,13,8.70
2009,09,23,06,14,8.70
2009,09,23,06,15,8.70
2009,09,23,06,16,8.70
2009,09,23,06,17,8.70
2009,09,23,06,18,8.70
2009,09,23,06,19,8.80
2009,09,23,06,20,8.80
2009,09,23,06,21,8.80
2009,09,23,06,22,8.80
2009,09,23,06,23,8.80
2009,09,23,06,24,8.80
2009,09,23,06,25,8.80
2009,09,23,06,26,8.80
2009,09,23,06,27,8.80
2009,09,23,06,28,8.70
2009,09,23,06,29,8.70
2009,09,23,06,30,8.60
2009,09,23,06,31,8.60
2009,09,23,06,32,8.60
2009,09,23,06,33,8.50
2009,09,23,06,34,8.40
2009,09,23,06,35,8.40
2009,09,23,06,36,8.40
2009,09,23,06,37,8.30
2009,09,23,06,38,8.30
2009,09,23,06,39,8.30
2009,09,23,06,40,8.30
2009,09,23,06,41,8.30
2009,09,23,06,42,8.30
2009,09,23,06,43,8.30
2009,09,23,06,44,8.30
2009,09,23,06,45,8.30
2009,09,23,06,46,8.30
2009,09,23,06,47,8.30
2009,09,23,06,48,8.30
2009,09,23,06,49,8.40
2009,09,23,06,50,8.40
2009,09,23,06,51,8.40
2009,09,23,06,52,8.40
2009,09,23,06,53,8.40
2009,09,23,06,54,8.40
2009,09,23,06,55,8.40
2009,09,23,06,56,8.30
2009,09,23,06,57,8.40
2009,09,23,06,58,8.40
2009,09,23,06,59,8.40
2009,09,23,07,00,8.40
2009,09,23,07,01,8.40
2009,09,23,07,02,8.40
2009,09,23,07,03,8.40
2009,09,23,07,04,8.40
2009,09,23,07,05,8.40
2009,09,23,07,06,8.40
2009,09,23,07,07,8.40
2009,09,23,07,08,8.40
2009,09,23,07,09,8.40
2009,09,23,07,10,8.40
2009,09,23,07,11,8.40
2009,09,23,07,12,8.40
2009,09,23,07,13,8.30
2009,09,23,07,14,8.30
2009,09,23,07,15,8.30
2009,09,23,07,16,8.30
2009,09,23,07,17,8.30
2009,09,23,07,18,8.30
2009,09,23,07,19,8.20
2009,09,23,07,20,8.20
2009,09,23,07,21,8.20
2009,09,23,07,22,8.20
2009,09,23,07,23,8.30
2009,09,23,07,24,8.30
2009,09,23,07,25,8.30
2009,09,23,07,26,8.40
2009,09,23,07,27,8.40
2009,09,23,07,28,8.50
2009,09,23,07,29,8.50
2009,09,23,07,30,8.50
2009,09,23,07,31,8.50
2009,09,23,07,32,8.60
2009,09,23,07,33,8.60
2009,09,23,07,34,8.60
2009,09,23,07,35,8.60
2009,09,23,07,36,8.60
2009,09,23,07,37,8.60
2009,09,23,07,38,8.60
2009,09,23,07,39,8.60
2009,09,23,07,40,8.60
2009,09,23,07,41,8.60
2009,09,23,07,42,8.70
2009,09,23,07,43,8.70
2009,09,23,07,44,8.70
2009,09,23,07,45,8.70
2009,09,23,07,46,8.70
2009,09,23,07,47,8.70
2009,09,23,07,48,8.70
2009,09,23,07,49,8.70
2009,09,23,07,50,8.70
2009,09,23,07,51,8.70
2009,09,23,07,52,8.70
2009,09,23,07,53,8.70
2009,09,23,07,54,8.70
2009,09,23,07,55,8.70
2009,09,23,07,56,8.80
2009,09,23,07,57,8.80
2009,09,23,07,58,8.90
2009,09,23,07,59,9.00
2009,09,23,08,00,9.00
2009,09,23,08,01,9.10
2009,09,23,08,02,9.20
2009,09,23,08,03,9.30
2009,09,23,08,04,9.40
2009,09,23,08,05,9.50
2009,09,23,08,06,9.60
2009,09,23,08,07,9.70
2009,09,23,08,08,9.70
2009,09,23,08,09,9.80
2009,09,23,08,10,9.90
2009,09,23,08,11,10.00
2009,09,23,08,12,10.10
2009,09,23,08,13,10.20
2009,09,23,08,14,10.30
2009,09,23,08,15,10.40
2009,09,23,08,16,10.50
2009,09,23,08,17,10.60
2009,09,23,08,18,10.70
2009,09,23,08,19,10.80
2009,09,23,08,20,10.90
2009,09,23,08,21,10.90
2009,09,23,08,22,11.00
2009,09,23,08,23,11.10
2009,09,23,08,24,11.20
2009,09,23,08,25,11.20
2009,09,23,08,26,11.30
2009,09,23,08,27,11.20
2009,09,23,08,28,11.20
2009,09,23,08,29,11.20
2009,09,23,08,30,11.20
2009,09,23,08,31,11.20
2009,09,23,08,32,11.20
2009,09,23,08,33,11.20
2009,09,23,08,34,11.20
2009,09,23,08,35,11.20
2009,09,23,08,36,11.20
2009,09,23,08,37,11.20
2009,09,23,08,38,11.30
2009,09,23,08,39,11.30
2009,09,23,08,40,11.40
2009,09,23,08,41,11.40
2009,09,23,08,42,11.50
2009,09,23,08,43,11.60
2009,09,23,08,44,11.60
2009,09,23,08,45,11.80
2009,09,23,08,46,11.90
2009,09,23,08,47,12.10
2009,09,23,08,48,12.20
2009,09,23,08,49,12.30
2009,09,23,08,50,12.40
2009,09,23,08,51,12.50
2009,09,23,08,52,12.60
2009,09,23,08,53,12.70
2009,09,23,08,54,12.80
2009,09,23,08,55,12.80
2009,09,23,08,56,12.90
2009,09,23,08,57,13.00
2009,09,23,08,58,13.10
2009,09,23,08,59,13.20
2009,09,23,09,00,13.40
2009,09,23,09,01,13.50
2009,09,23,09,02,13.70
2009,09,23,09,03,13.80
2009,09,23,09,04,14.00
2009,09,23,09,05,14.20
2009,09,23,09,06,14.40
2009,09,23,09,07,14.60
2009,09,23,09,08,14.80
2009,09,23,09,09,15.00
2009,09,23,09,10,15.00
2009,09,23,09,11,15.10
2009,09,23,09,12,15.30
2009,09,23,09,13,15.40
2009,09,23,09,14,15.60
2009,09,23,09,15,15.70
2009,09,23,09,16,15.80
2009,09,23,09,17,16.00
2009,09,23,09,18,16.10
2009,09,23,09,19,16.20
2009,09,23,09,20,16.20
2009,09,23,09,21,16.30
2009,09,23,09,22,16.40
2009,09,23,09,23,16.40
2009,09,23,09,24,16.50
2009,09,23,09,25,16.50
2009,09,23,09,26,16.60
2009,09,23,09,27,16.70
2009,09,23,09,28,16.70
2009,09,23,09,29,16.80
2009,09,23,09,30,16.80
2009,09,23,09,31,16.80
2009,09,23,09,32,16.90
2009,09,23,09,33,16.90
2009,09,23,09,34,17.00
2009,09,23,09,35,17.00
2009,09,23,09,36,17.10
2009,09,23,09,37,17.20
2009,09,23,09,38,17.20
2009,09,23,09,39,17.30
2009,09,23,09,40,17.30
2009,09,23,09,41,17.30
2009,09,23,09,42,17.40
2009,09,23,09,43,17.40
2009,09,23,09,44,17.50
2009,09,23,09,45,17.50
2009,09,23,09,46,17.50
2009,09,23,09,47,17.60
2009,09,23,09,48,17.70
2009,09,23,09,49,17.80
2009,09,23,09,50,17.80
2009,09,23,09,51,17.90
2009,09,23,09,52,17.90
2009,09,23,09,53,18.00
2009,09,23,09,54,18.10
2009,09,23,09,55,18.10
2009,09,23,09,56,18.10
2009,09,23,09,57,18.20
2009,09,23,09,58,18.20
2009,09,23,09,59,18.30
2009,09,23,10,00,18.40
2009,09,23,10,01,18.40
2009,09,23,10,02,18.50
2009,09,23,10,03,18.60
2009,09,23,10,04,18.70
2009,09,23,10,05,18.80
2009,09,23,10,06,18.80
2009,09,23,10,07,18.80
2009,09,23,10,08,18.80
2009,09,23,10,09,18.90
2009,09,23,10,10,18.90
2009,09,23,10,11,18.90
2009,09,23,10,12,19.00
2009,09,23,10,13,19.00
2009,09,23,10,14,19.10
2009,09,23,10,15,19.20
2009,09,23,10,16,19.30
2009,09,23,10,17,19.20
2009,09,23,10,18,19.20
2009,09,23,10,19,19.20
2009,09,23,10,20,19.30
2009,09,23,10,21,19.40
2009,09,23,10,22,19.40
2009,09,23,10,23,19.50
2009,09,23,10,24,19.60
2009,09,23,10,25,19.70
2009,09,23,10,26,19.80
2009,09,23,10,27,19.90
2009,09,23,10,28,20.10
2009,09,23,10,29,20.20
2009,09,23,10,30,20.40
2009,09,23,10,31,20.50
2009,09,23,10,32,20.50
2009,09,23,10,33,20.50
2009,09,23,10,34,20.60
2009,09,23,10,35,20.60
2009,09,23,10,36,20.70
2009,09,23,10,37,20.60
2009,09,23,10,38,20.60
2009,09,23,10,39,20.60
2009,09,23,10,40,20.50
2009,09,23,10,41,20.50
2009,09,23,10,42,20.50
2009,09,23,10,43,20.40
2009,09,23,10,44,20.40
2009,09,23,10,45,20.40
2009,09,23,10,46,20.40
2009,09,23,10,47,20.40
2009,09,23,10,48,20.40
2009,09,23,10,49,20.40
2009,09,23,10,50,20.40
2009,09,23,10,51,20.40
2009,09,23,10,52,20.50
2009,09,23,10,53,20.50
2009,09,23,10,54,20.50
2009,09,23,10,55,20.60
2009,09,23,10,56,20.60
2009,09,23,10,57,20.70
2009,09,23,10,58,20.70
2009,09,23,10,59,20.80
2009,09,23,11,00,20.90
2009,09,23,11,01,21.00
2009,09,23,11,02,21.20
2009,09,23,11,03,21.30
2009,09,23,11,04,21.30
2009,09,23,11,05,21.20
2009,09,23,11,06,21.20
2009,09,23,11,07,21.10
2009,09,23,11,08,21.10
2009,09,23,11,09,21.10
2009,09,23,11,10,21.10
2009,09,23,11,11,21.20
2009,09,23,11,12,21.30
2009,09,23,11,13,21.40
2009,09,23,11,14,21.50
2009,09,23,11,15,21.60
2009,09,23,11,16,21.60
2009,09,23,11,17,21.80
2009,09,23,11,18,21.80
2009,09,23,11,19,21.80
2009,09,23,11,20,21.80
2009,09,23,11,21,21.80
2009,09,23,11,22,21.70
2009,09,23,11,23,21.70
2009,09,23,11,24,21.80
2009,09,23,11,25,21.70
2009,09,23,11,26,21.70
2009,09,23,11,27,21.70
2009,09,23,11,28,21.80
2009,09,23,11,29,21.90
2009,09,23,11,30,22.00
2009,09,23,11,31,22.10
2009,09,23,11,32,22.20
2009,09,23,11,33,22.20
2009,09,23,11,34,22.10
2009,09,23,11,35,22.20
2009,09,23,11,36,22.20
2009,09,23,11,37,22.30
2009,09,23,11,38,22.30
2009,09,23,11,39,22.30
2009,09,23,11,40,22.40
2009,09,23,11,41,22.40
2009,09,23,11,42,22.40
2009,09,23,11,43,22.50
2009,09,23,11,44,22.40
2009,09,23,11,45,22.40
2009,09,23,11,46,22.40
2009,09,23,11,47,22.40
2009,09,23,11,48,22.50
2009,09,23,11,49,22.60
2009,09,23,11,50,22.60
2009,09,23,11,51,22.70
2009,09,23,11,52,22.80
2009,09,23,11,53,22.80
2009,09,23,11,54,22.80
2009,09,23,11,55,22.80
2009,09,23,11,56,22.90
2009,09,23,11,57,22.90
2009,09,23,11,58,22.90
2009,09,23,11,59,22.90
2009,09,23,12,00,23.00
2009,09,23,12,01,23.10
2009,09,23,12,02,23.10
2009,09,23,12,03,23.20
2009,09,23,12,04,23.20
2009,09,23,12,05,23.20
2009,09,23,12,06,23.20
2009,09,23,12,07,23.30
2009,09,23,12,08,23.30
2009,09,23,12,09,23.30
2009,09,23,12,10,23.30
2009,09,23,12,11,23.30
2009,09,23,12,12,23.30
2009,09,23,12,13,23.30
2009,09,23,12,14,23.20
2009,09,23,12,15,23.30
2009,09,23,12,16,23.30
2009,09,23,12,17,23.40
2009,09,23,12,18,23.40
2009,09,23,12,19,23.40
2009,09,23,12,20,23.30
2009,09,23,12,21,23.30
2009,09,23,12,22,23.40
2009,09,23,12,23,23.50
2009,09,23,12,24,23.50
2009,09,23,12,25,23.50
2009,09,23,12,26,23.60
2009,09,23,12,27,23.60
2009,09,23,12,28,23.60
2009,09,23,12,29,23.60
2009,09,23,12,30,23.60
2009,09,23,12,31,23.70
2009,09,23,12,32,23.70
2009,09,23,12,33,23.70
2009,09,23,12,34,23.70
2009,09,23,12,35,23.80
2009,09,23,12,36,23.80
2009,09,23,12,37,23.80
2009,09,23,12,38,23.90
2009,09,23,12,39,24.00
2009,09,23,12,40,24.00
2009,09,23,12,41,24.10
2009,09,23,12,42,24.20
2009,09,23,12,43,24.30
2009,09,23,12,44,24.30
2009,09,23,12,45,24.30
2009,09,23,12,46,24.30
2009,09,23,12,47,24.30
2009,09,23,12,48,24.30
2009,09,23,12,49,24.30
2009,09,23,12,50,24.30
2009,09,23,12,51,24.40
2009,09,23,12,52,24.40
2009,09,23,12,53,24.50
2009,09,23,12,54,24.60
2009,09,23,12,55,24.60
2009,09,23,12,56,24.70
2009,09,23,12,57,24.70
2009,09,23,12,58,24.70
2009,09,23,12,59,24.60
2009,09,23,13,00,24.60
2009,09,23,13,01,24.70
2009,09,23,13,02,24.70
2009,09,23,13,03,24.70
2009,09,23,13,04,24.80
2009,09,23,13,05,24.80
2009,09,23,13,06,24.80
2009,09,23,13,07,24.80
2009,09,23,13,08,24.80
2009,09,23,13,09,24.70
2009,09,23,13,10,24.80
2009,09,23,13,11,24.90
2009,09,23,13,12,25.00
2009,09,23,13,13,25.10
2009,09,23,13,14,25.30
2009,09,23,13,15,25.40
2009,09,23,13,16,25.30
2009,09,23,13,17,25.20
2009,09,23,13,18,25.10
2009,09,23,13,19,25.00
2009,09,23,13,20,24.90
2009,09,23,13,21,24.90
2009,09,23,13,22,24.80
2009,09,23,13,23,24.80
2009,09,23,13,24,24.80
2009,09,23,13,25,24.80
2009,09,23,13,26,24.80
2009,09,23,13,27,24.80
2009,09,23,13,28,24.80
2009,09,23,13,29,24.70
2009,09,23,13,30,24.60
2009,09,23,13,31,24.50
2009,09,23,13,32,24.40
2009,09,23,13,33,24.40
2009,09,23,13,34,24.40
2009,09,23,13,35,24.40
2009,09,23,13,36,24.30
2009,09,23,13,37,24.20
2009,09,23,13,38,24.30
2009,09,23,13,39,24.30
2009,09,23,13,40,24.30
2009,09,23,13,41,24.20
2009,09,23,13,42,24.20
2009,09,23,13,43,24.10
2009,09,23,13,44,24.00
2009,09,23,13,45,24.00
2009,09,23,13,46,24.00
2009,09,23,13,47,24.00
2009,09,23,13,48,23.90
2009,09,23,13,49,23.90
2009,09,23,13,50,23.90
2009,09,23,13,51,23.90
2009,09,23,13,52,24.00
2009,09,23,13,53,24.10
2009,09,23,13,54,24.30
2009,09,23,13,55,24.40
2009,09,23,13,56,24.40
2009,09,23,13,57,24.40
2009,09,23,13,58,24.50
2009,09,23,13,59,24.50
2009,09,23,14,00,24.40
2009,09,23,14,01,24.50
2009,09,23,14,02,24.60
2009,09,23,14,03,24.60
2009,09,23,14,04,24.50
2009,09,23,14,05,24.40
2009,09,23,14,06,24.30
2009,09,23,14,07,24.10
2009,09,23,14,08,24.00
2009,09,23,14,09,23.90
2009,09,23,14,10,23.90
2009,09,23,14,11,23.80
2009,09,23,14,12,23.80
2009,09,23,14,13,23.80
2009,09,23,14,14,23.90
2009,09,23,14,15,24.00
2009,09,23,14,16,24.10
2009,09,23,14,17,24.20
2009,09,23,14,18,24.30
2009,09,23,14,19,24.40
2009,09,23,14,20,24.50
2009,09,23,14,21,24.50
2009,09,23,14,22,24.50
2009,09,23,14,23,24.40
2009,09,23,14,24,24.30
2009,09,23,14,25,24.20
2009,09,23,14,26,24.10
2009,09,23,14,27,24.00
2009,09,23,14,28,23.80
2009,09,23,14,29,23.80
2009,09,23,14,30,23.80
2009,09,23,14,31,23.80
2009,09,23,14,32,23.80
2009,09,23,14,33,23.80
2009,09,23,14,34,23.80
2009,09,23,14,35,23.80
2009,09,23,14,36,23.80
2009,09,23,14,37,23.80
2009,09,23,14,38,23.80
2009,09,23,14,39,23.80
2009,09,23,14,40,23.80
2009,09,23,14,41,23.80
2009,09,23,14,42,23.90
2009,09,23,14,43,23.90
2009,09,23,14,44,23.90
2009,09,23,14,45,23.90
2009,09,23,14,46,23.90
2009,09,23,14,47,24.00
2009,09,23,14,48,24.00
2009,09,23,14,49,24.00
2009,09,23,14,50,24.00
2009,09,23,14,51,24.00
2009,09,23,14,52,23.90
2009,09,23,14,53,24.00
2009,09,23,14,54,24.00
2009,09,23,14,55,24.10
2009,09,23,14,56,24.10
2009,09,23,14,57,24.20
2009,09,23,14,58,24.10
2009,09,23,14,59,24.10
2009,09,23,15,00,24.00
2009,09,23,15,01,24.00
2009,09,23,15,02,24.00
2009,09,23,15,03,24.00
2009,09,23,15,04,24.10
2009,09,23,15,05,24.10
2009,09,23,15,06,24.20
2009,09,23,15,07,24.30
2009,09,23,15,08,24.20
2009,09,23,15,09,24.30
2009,09,23,15,10,24.30
2009,09,23,15,11,24.20
2009,09,23,15,12,24.20
2009,09,23,15,13,24.30
2009,09,23,15,14,24.30
2009,09,23,15,15,24.40
2009,09,23,15,16,24.40
2009,09,23,15,17,24.30
2009,09,23,15,18,24.30
2009,09,23,15,19,24.20
2009,09,23,15,20,24.00
2009,09,23,15,21,23.90
2009,09,23,15,22,23.90
2009,09,23,15,23,23.90
2009,09,23,15,24,24.00
2009,09,23,15,25,23.90
2009,09,23,15,26,23.90
2009,09,23,15,27,23.90
2009,09,23,15,28,23.80
2009,09,23,15,29,23.70
2009,09,23,15,30,23.70
2009,09,23,15,31,23.70
2009,09,23,15,32,23.70
2009,09,23,15,33,23.80
2009,09,23,15,34,23.80
2009,09,23,15,35,23.80
2009,09,23,15,36,23.80
2009,09,23,15,37,23.80
2009,09,23,15,38,23.90
2009,09,23,15,39,24.10
2009,09,23,15,40,24.10
2009,09,23,15,41,24.00
2009,09,23,15,42,24.00
2009,09,23,15,43,23.90
2009,09,23,15,44,24.00
2009,09,23,15,45,24.00
2009,09,23,15,46,24.00
2009,09,23,15,47,23.80
2009,09,23,15,48,23.80
2009,09,23,15,49,23.70
2009,09,23,15,50,23.70
2009,09,23,15,51,23.70
2009,09,23,15,52,23.80
2009,09,23,15,53,24.00
2009,09,23,15,54,24.10
2009,09,23,15,55,24.20
2009,09,23,15,56,24.20
2009,09,23,15,57,24.20
2009,09,23,15,58,24.20
2009,09,23,15,59,24.20
2009,09,23,16,00,24.20
2009,09,23,16,01,24.10
2009,09,23,16,02,24.20
2009,09,23,16,03,24.30
2009,09,23,16,04,24.30
2009,09,23,16,05,24.40
2009,09,23,16,06,24.40
2009,09,23,16,07,24.30
2009,09,23,16,08,24.20
2009,09,23,16,09,24.10
2009,09,23,16,10,24.10
2009,09,23,16,11,24.00
2009,09,23,16,12,23.90
2009,09,23,16,13,23.90
2009,09,23,16,14,23.80
2009,09,23,16,15,23.70
2009,09,23,16,16,23.70
2009,09,23,16,17,23.70
2009,09,23,16,18,23.80
2009,09,23,16,19,23.90
2009,09,23,16,20,23.90
2009,09,23,16,21,24.00
2009,09,23,16,22,24.00
2009,09,23,16,23,24.00
2009,09,23,16,24,24.10
2009,09,23,16,25,24.10
2009,09,23,16,26,24.10
2009,09,23,16,27,24.10
2009,09,23,16,28,24.10
2009,09,23,16,29,24.10
2009,09,23,16,30,24.10
2009,09,23,16,31,24.20
2009,09,23,16,32,24.20
2009,09,23,16,33,24.20
2009,09,23,16,34,24.10
2009,09,23,16,35,24.10
2009,09,23,16,36,24.10
2009,09,23,16,37,24.10
2009,09,23,16,38,24.10
2009,09,23,16,39,24.20
2009,09,23,16,40,24.20
2009,09,23,16,41,24.30
2009,09,23,16,42,24.40
2009,09,23,16,43,24.40
2009,09,23,16,44,24.40
2009,09,23,16,45,24.50
2009,09,23,16,46,24.60
2009,09,23,16,47,24.70
2009,09,23,16,48,24.80
2009,09,23,16,49,24.80
2009,09,23,16,50,24.80
2009,09,23,16,51,24.90
2009,09,23,16,52,25.00
2009,09,23,16,53,25.10
2009,09,23,16,54,25.20
2009,09,23,16,55,25.30
2009,09,23,16,56,25.30
2009,09,23,16,57,25.40
2009,09,23,16,58,25.60
2009,09,23,16,59,25.70
2009,09,23,17,00,25.80
2009,09,23,17,01,25.90
2009,09,23,17,02,26.00
2009,09,23,17,03,26.10
2009,09,23,17,04,26.30
2009,09,23,17,05,26.50
2009,09,23,17,06,26.70
2009,09,23,17,07,26.90
2009,09,23,17,08,27.10
2009,09,23,17,09,27.20
2009,09,23,17,10,27.40
2009,09,23,17,11,27.50
2009,09,23,17,12,27.70
2009,09,23,17,13,27.80
2009,09,23,17,14,27.90
2009,09,23,17,15,27.90
2009,09,23,17,16,28.00
2009,09,23,17,17,28.10
2009,09,23,17,18,28.10
2009,09,23,17,19,28.20
2009,09,23,17,20,28.30
2009,09,23,17,21,28.30
2009,09,23,17,22,28.30
2009,09,23,17,23,28.30
2009,09,23,17,24,28.30
2009,09,23,17,25,28.30
2009,09,23,17,26,28.30
2009,09,23,17,27,28.30
2009,09,23,17,28,28.30
2009,09,23,17,29,28.30
2009,09,23,17,30,28.30
2009,09,23,17,31,28.20
2009,09,23,17,32,28.20